Ruffin, NC (27326)

10:43 PM EDT on March 29, 2017 (GMT -0400)
Draper-Eden | | Change Station

Elev 0 ft 36.51 °N, 79.69 °W | Updated 25 seconds ago

Clear
Clear
59.9 °F
Feels Like 59.9 °F
N
0.0
Wind Variable Wind from SSE
Gusts 1.8 mph

Today
High -- | Low -- °F
--% Chance of Precip.
Yesterday
High -- | Low -- °F
Precip. -- in
Pressure 30.07 in
Visibility 10.0 miles
Clouds Few 9000 ft
Dew Point 51 °F
Humidity 73%
Rainfall 0.00 in
Snow Depth Not available.
7:08 AM 7:37 PM
Waxing Crescent, 6% visible
METAR KDAN 300153Z AUTO 09004KT 10SM FEW090 16/10 A3009 RMK AO2 SLP182 T01610100
Pressure 30.07 in
Visibility 10.0 miles
Clouds Few 9000 ft
Dew Point 51 °F
Humidity 73%
Rainfall 0.00 in
Snow Depth Not available.
7:08 AM 7:37 PM
Waxing Crescent, 6% visible
METAR KDAN 300153Z AUTO 09004KT 10SM FEW090 16/10 A3009 RMK AO2 SLP182 T01610100

Get Severe Weather Alerts

Thanks for signing up!

Be on the lookout for a verification email in your inbox.

You'll start receiving the daily forecast at 8 AM.

×

10-Day Weather Forecast

Almanac

Astronomy

Mar. 29, 2017 Rise Set
Actual Time
Civil Twilight
Nautical Twilight
Astronomical Twilight
Moon
Length of Visible Light
Length of Day
Tomorrow will be .
, % of the Moon is Illuminated

Today's Extremes

State Highs State Lows

Community

WunderPhotos

Upload Photos

1,962,540 photos uploaded!

WunderBlog® & News

Nearby

Air Quality

  Air Quality AQ Index Pollutant
Not available.

Snow Depth

Station Depth Elevation

Earthquake Activity

City Distance Mag. Time & Date
Minimum magnitude displayed is 2.5.

Earthquake Activity

City Distance Mag. Time & Date
Minimum magnitude displayed is 2.5.

Coastal Water Temperatures

Place Temperature

Stations

Nearby Weather Stations

Station Location Temp. Windchill Dew Point Humidity Wind Precip. Elev Updated Type
                   

Watches & Warnings

There are currently no watches in effect.